GFSNIL_925_temp_003.txt.gz
Temp
13 12 12 12 12 11 11 11 11 10 10 10 10 10 10 10 10 9 9 9 8 8
13 12 12 12 12 11 11 11 11 10 10 10 10 10 10 10 10 9 9 9 8 8
13 12 12 12 11 11 11 11 11 10 10 10 10 10 10 10 10 9 9 9 8 7
13 12 12 12 11 11 11 11 11 10 10 10 10 10 10 9 9 9 9 9 8 7
13 12 12 11 11 11 10 10 10 10 10 10 10 10 9 9 9 9 8 8 8 7
13 12 12 11 11 10 10 10 10 10 10 10 9 9 9 9 9 9 9 8 8 7
12 12 11 11 11 10 10 10 10 10 10 10 9 9 9 9 9 9 9 8 8 7
12 12 11 11 11 10 10 10 10 10 9 9 9 9 9 9 9 9 9 8 8 7
12 12 11 11 11 10 10 10 9 9 9 9 9 8 9 9 9 9 9 8 8 7
12 11 11 11 11 10 9 9 9 9 8 8 8 8 8 9 9 9 9 8 8 7
11 11 11 11 10 9 9 9 9 8 8 8 8 8 8 8 9 8 9 8 8 7
11 11 10 10 9 9 9 9 8 8 8 8 8 8 8 8 7 7 7 7 7 6
11 10 10 10 9 9 9 8 8 8 8 8 8 7 7 6 6 6 6 7 6 6
10 10 10 9 9 9 9 8 8 8 8 7 7 6 6 6 6 6 6 6 5 5

GFSNIL_925_temp_006.txt.gz
Temp
13 12 12 12 12 12 11 11 11 11 10 10 10 10 10 10 10 9 9 9 9 9
13 12 12 12 12 12 11 11 11 10 10 10 10 10 10 10 10 9 9 9 9 9
13 13 12 12 12 11 11 11 11 10 10 10 10 10 10 10 9 9 9 9 9 9
13 13 12 12 12 11 11 11 10 10 10 10 10 10 9 9 9 9 9 9 8 8
13 13 12 12 12 11 11 10 10 10 10 10 10 10 9 9 9 9 8 8 8 8
13 12 12 12 11 11 10 10 10 10 10 10 9 9 9 9 9 8 8 8 8 8
13 12 12 12 11 11 10 10 10 10 10 9 9 9 8 8 8 8 8 8 8 8
13 12 12 12 11 11 10 10 10 9 9 9 8 8 8 8 8 8 8 8 8 8
13 12 12 12 11 11 10 10 9 9 8 8 8 8 8 8 8 8 8 8 8 8
12 12 12 11 11 10 10 9 9 8 8 8 8 8 8 8 8 7 7 6 7 7
12 12 11 11 10 10 9 9 9 8 8 8 8 8 7 7 7 6 6 6 6 6
12 11 11 10 10 9 9 9 8 8 8 8 8 7 7 7 6 6 6 6 6 6
11 11 10 10 9 9 9 9 8 8 8 8 7 7 7 6 6 5 5 5 5 5
11 11 10 10 9 9 9 8 8 8 8 7 7 6 6 6 5 5 5 5 5 5

GFSNIL_925_temp_009.txt.gz
Temp
14 13 13 13 12 12 11 11 11 11 11 10 10 10 10 9 9 9 9 9 9 9
13 13 13 13 12 12 11 11 11 11 10 10 10 10 10 9 9 9 9 9 9 8
13 13 13 13 12 12 12 11 11 11 10 10 10 10 9 9 9 9 9 9 8 8
13 13 13 12 12 12 11 11 11 10 10 10 10 9 9 9 9 9 8 8 8 8
13 13 12 12 12 12 11 11 11 10 10 10 9 9 9 9 8 8 8 8 8 8
13 13 12 12 12 11 11 11 10 10 10 10 9 9 8 8 8 8 8 8 8 8
13 13 13 12 12 11 11 11 10 10 10 9 9 8 8 8 7 8 8 8 8 8
13 13 13 12 11 11 11 10 10 10 9 9 8 8 7 7 7 8 8 7 7 6
13 13 12 12 11 11 11 10 10 9 9 8 8 8 7 7 8 7 7 6 6 6
12 12 12 12 11 11 10 10 9 9 8 8 8 8 7 7 7 7 6 6 6 6
11 12 12 11 11 10 10 9 9 9 8 8 8 8 7 7 7 7 6 6 6 5
11 11 11 10 10 10 9 9 9 8 8 8 8 7 7 7 6 6 5 5 5 5
12 12 11 11 10 10 9 9 8 8 8 8 7 7 6 6 6 5 5 6 6 6
12 12 11 11 10 9 9 8 8 8 8 8 7 6 6 6 6 5 5 5 6 6

GFSNIL_925_temp_015.txt.gz
Temp
13 13 13 15 14 13 12 12 12 11 11 11 10 10 10 9 9 9 9 9 8 8
12 12 13 14 15 14 13 13 12 11 11 10 10 10 10 9 9 9 9 9 8 7
11 12 13 14 14 14 13 12 12 11 11 10 10 10 10 9 9 9 9 8 8 7
10 11 12 13 14 14 13 12 11 11 11 10 10 10 9 9 9 9 8 8 7 7
10 11 11 12 14 13 13 12 12 11 11 10 10 10 9 9 9 8 8 7 7 6
10 10 11 12 13 13 12 12 11 11 11 10 10 9 9 9 9 8 8 7 7 6
10 10 10 11 12 12 12 12 11 11 11 10 10 9 9 9 8 8 7 7 7 6
10 10 10 11 11 12 11 11 11 11 10 10 9 9 9 8 8 7 7 7 6 6
9 9 9 9 10 11 11 11 11 10 10 9 9 9 8 8 7 7 7 6 6 6
9 9 9 9 10 9 10 10 10 10 10 9 9 9 8 7 7 7 7 6 6 5
9 9 9 9 9 9 9 10 9 9 9 9 9 8 7 7 7 7 7 6 5 5
9 9 8 9 9 9 8 8 9 10 9 9 8 8 7 7 6 6 6 6 5 5
9 9 8 9 8 8 9 9 9 9 9 9 8 8 7 7 6 6 6 5 5 6
9 9 9 8 8 8 8 8 8 7 8 8 8 8 7 7 6 6 6 5 5 5

GFSNIL_925_temp_021.txt.gz
Temp
21 19 18 19 19 18 16 15 15 15 15 14 14 13 13 13 13 13 13 12 12 12
20 20 18 18 20 18 17 16 15 15 14 15 14 13 13 12 12 12 12 12 12 12
19 19 18 18 19 18 17 16 15 14 14 14 14 13 13 12 12 12 12 12 12 12
18 18 18 18 18 18 17 17 15 14 14 14 14 13 13 12 12 12 12 12 12 11
17 17 17 18 18 18 17 16 15 14 14 13 13 13 13 12 13 12 12 12 11 11
16 16 16 17 18 18 18 16 15 14 14 14 13 13 13 13 13 13 12 12 12 11
15 15 16 16 17 17 17 16 15 14 14 14 13 13 13 13 13 13 12 12 11 11
14 14 15 15 16 17 17 16 15 15 14 14 13 13 13 13 12 12 12 11 11 11
12 13 14 15 15 16 17 16 16 15 14 13 13 13 12 12 12 12 12 11 11 11
12 12 13 14 14 15 16 16 16 15 14 13 13 13 12 11 11 11 11 11 11 10
12 12 12 13 14 14 15 16 15 15 14 13 13 12 11 10 11 11 11 11 10 10
12 11 10 11 13 14 15 15 15 15 14 13 12 11 10 9 10 10 10 10 10 9
11 11 10 11 12 13 14 14 15 14 13 13 12 10 9 9 10 11 11 10 10 9
10 10 10 10 11 13 14 14 14 14 13 12 12 9 9 9 10 11 11 10 10 9

GFSNIL_925_temp_024.txt.gz
Temp
18 18 19 19 19 18 16 16 16 16 15 15 15 15 15 14 14 14 13 13 13 13
16 17 18 19 19 19 18 16 15 15 15 15 15 15 14 14 13 13 13 13 13 12
16 16 16 18 18 18 18 17 15 15 15 15 14 14 14 13 13 13 12 12 12 12
14 15 15 17 18 18 18 17 16 15 14 15 14 13 13 13 12 12 12 12 12 12
13 14 14 16 16 17 18 17 16 15 14 14 14 13 13 12 12 12 12 12 12 12
13 13 13 14 15 16 17 17 16 15 14 14 13 13 12 12 12 12 12 12 12 11
12 12 12 12 14 14 16 17 16 15 14 13 13 13 12 12 12 12 12 12 12 11
12 11 11 10 11 13 15 16 17 15 14 13 13 13 12 12 12 13 12 12 12 12
13 11 11 10 9 11 13 15 16 15 14 13 13 13 13 13 13 13 12 12 12 11
12 12 11 10 9 8 9 14 15 15 14 13 13 13 13 13 13 12 12 12 11 11
12 11 11 11 8 8 8 12 14 15 14 13 13 13 12 12 12 12 11 11 11 11
11 10 10 10 9 9 7 8 14 15 14 13 13 13 12 11 11 11 11 11 11 10
10 9 9 9 10 9 8 7 13 14 14 13 12 12 11 11 11 11 11 10 10 10
8 8 8 9 9 9 8 7 11 14 13 12 12 11 11 10 10 10 10 10 10 10

GFSNIL_925_temp_027.txt.gz
Temp
15 15 14 14 14 15 15 16 17 17 17 17 16 16 16 15 15 14 14 14 14 14
15 14 14 14 14 14 15 15 16 17 16 16 16 16 15 15 15 14 14 14 14 13
14 14 14 13 13 14 14 15 15 15 16 15 15 15 15 14 14 14 14 13 13 13
14 14 14 13 13 12 13 14 15 15 14 14 14 14 14 14 14 14 13 13 13 13
13 13 13 12 12 12 12 13 14 14 13 13 14 14 13 13 12 13 13 13 12 12
13 13 13 12 12 12 11 11 13 14 14 13 13 13 13 13 12 12 13 12 12 12
12 13 13 12 11 11 10 9 11 12 12 14 13 13 12 12 11 11 12 12 12 12
12 12 12 12 11 10 10 10 9 9 10 13 13 12 11 11 11 11 11 12 12 12
12 11 11 11 11 10 10 9 7 7 9 12 13 13 12 11 11 12 12 12 12 12
11 11 11 10 10 10 9 9 7 6 8 12 12 12 12 11 11 12 11 12 12 11
10 10 9 9 9 9 9 8 7 6 7 12 12 12 12 11 11 12 12 12 12 11
9 9 9 8 8 8 7 8 7 5 7 11 11 12 12 11 11 12 12 12 11 11
9 9 8 7 7 7 7 7 7 5 7 10 12 12 12 11 11 11 11 11 11 11
8 8 8 7 7 7 7 7 8 6 7 8 12 12 11 11 11 11 10 10 10 10

GFSNIL_925_temp_030.txt.gz
Temp
14 14 14 14 14 13 13 12 13 13 14 14 14 15 17 17 16 15 15 15 14 14
13 13 13 13 13 13 13 12 13 13 13 13 14 14 15 15 15 14 15 15 14 14
13 13 13 13 13 13 13 13 12 12 13 13 13 13 13 13 14 13 13 14 14 14
13 13 13 13 13 12 13 12 11 11 12 13 12 13 12 13 13 13 12 12 14 14
12 12 12 12 12 12 12 12 11 10 10 12 13 13 12 12 12 12 11 12 13 13
11 11 11 11 12 12 12 11 10 10 10 10 11 12 12 12 11 12 11 12 12 12
11 10 10 11 11 11 11 10 11 10 9 9 9 10 11 11 11 11 11 11 12 12
10 10 10 10 10 11 10 10 10 9 9 8 8 9 11 12 11 11 10 11 11 12
10 10 10 9 10 10 10 9 9 8 8 8 8 8 9 12 11 10 10 10 11 11
9 9 9 9 9 9 9 8 7 7 6 7 6 7 8 10 10 9 10 10 10 11
8 9 8 8 8 8 8 7 7 6 6 6 6 6 7 11 9 9 9 10 11 11
8 8 8 8 7 8 7 7 6 6 6 5 5 6 8 10 8 8 9 10 11 12
8 8 7 7 7 7 6 6 6 6 6 6 5 6 8 8 7 8 8 10 11 12
7 7 7 7 6 6 6 6 6 5 6 6 5 6 8 9 7 7 8 8 9 10

GFSNIL_925_temp_033.txt.gz
Temp
13 13 12 12 13 13 13 13 13 13 12 12 13 13 12 13 12 12 13 13 14 15
13 13 12 12 12 12 12 12 12 12 12 12 12 12 12 12 12 12 12 13 14 13
12 12 12 11 10 10 11 12 12 11 11 11 11 11 12 12 12 12 11 11 12 13
12 11 11 11 11 11 11 11 11 11 11 11 11 11 11 12 11 11 11 11 11 13
11 11 11 11 11 11 11 11 11 11 11 10 11 11 10 10 11 11 11 10 10 11
10 10 10 10 10 10 10 10 10 10 9 10 10 10 10 10 10 11 11 10 9 10
10 10 10 9 10 10 10 9 9 9 9 9 9 9 9 9 9 10 10 10 10 10
10 10 10 9 9 9 9 9 9 9 9 8 8 7 8 8 8 9 10 9 9 9
8 8 9 9 9 9 9 8 8 9 8 7 7 7 7 8 8 8 9 8 8 9
8 8 8 9 8 8 8 8 8 7 7 7 6 6 7 7 7 7 8 9 8 8
8 7 7 8 8 8 8 7 7 7 6 6 5 6 7 7 7 7 8 9 8 8
7 7 7 7 7 7 7 6 6 6 5 5 5 6 6 6 6 6 7 9 8 8
6 6 6 6 6 7 6 6 5 5 5 5 5 5 6 6 5 7 6 7 6 7
6 6 6 6 6 5 5 5 4 4 5 5 5 5 5 5 6 6 4 4 5 7

GFSNIL_925_temp_036.txt.gz
Temp
13 12 12 12 11 11 11 11 12 12 12 12 12 12 12 12 11 11 11 11 11 12
12 12 12 11 11 11 11 11 11 11 11 11 11 11 12 11 11 11 11 11 11 11
12 12 11 11 11 10 10 10 10 10 11 11 11 11 11 11 11 11 10 10 10 10
12 12 11 11 10 10 10 10 9 10 10 10 10 11 10 10 10 10 10 10 10 10
8 9 9 11 10 10 10 10 9 9 9 9 10 9 10 10 10 10 9 10 10 10
8 8 7 10 10 10 10 9 9 9 9 9 8 8 9 9 9 9 9 9 9 10
7 7 7 9 9 9 9 9 9 9 9 8 8 8 8 8 8 8 8 8 9 9
7 7 7 7 8 8 9 9 9 8 8 8 8 8 7 7 7 7 7 8 8 8
6 7 6 7 7 7 7 7 8 8 8 8 7 7 7 7 7 7 7 7 7 7
6 6 6 6 7 6 6 6 7 7 7 7 7 6 7 7 7 7 7 7 7 7
5 5 6 6 6 6 6 6 6 6 7 7 6 6 6 6 7 7 7 7 6 6
4 4 5 5 5 6 5 5 5 6 5 5 5 5 5 6 6 6 6 6 6 6
2 2 3 4 5 4 5 4 5 5 5 4 4 4 5 5 6 5 6 6 6 7
1 1 1 2 3 4 3 4 4 4 4 3 3 4 4 5 5 5 6 5 6 6